[[{"header":{"parameterUnit":"m.s-1","parameterCategory":1,"la1":30.2991,"la2":30.254,"lo1":-89.0895,"lo2":-89.0444,"dy":0.0017,"dx":0.0017,"nx":28,"ny":28,"refTime":"2025-12-24T03:00:00:Z","depth":0,"parameterNumber":2,"parameterNumberName":"U-component_of_WINDS"},"data":[0,0,0,0,0,0,0,0,0,0,0,0,0,0,0,0,0,0,0,0,0,0,0,0,0,0,0,0,0,0,0,0,0,0,0,0,0,0,0,0,0,0,0,0,0,0,0,0,0,0,0,0,0,0,0,0,0,0,-0.055,-0.055,0,-0.0489,-0.0489,-0.0488,-0.0455,-0.0455,-0.0454,-0.0454,-0.0392,-0.039,-0.0389,0,0,0,0,0,0,0,0,0,0,0,0,0,-0.0639,-0.0637,-0.055,-0.055,-0.0549,-0.0489,-0.0489,-0.0488,-0.0455,-0.0455,-0.0454,-0.0454,-0.0392,-0.0391,-0.0389,0,0,0,0,0,0,0,0,0,0,0,0,0,-0.0591,-0.0637,-0.055,-0.0525,-0.0522,-0.049,-0.0489,-0.0488,-0.0455,-0.0455,-0.0454,-0.0454,-0.0393,-0.0391,-0.0388,-0.0376,0,0,-0.0381,-0.038,0,0,0,0,0,0,0,0,-0.0594,-0.0588,-0.053,-0.0527,-0.0524,-0.0479,-0.0497,-0.045,-0.0455,-0.048,-0.0454,-0.0454,-0.0421,-0.0416,-0.0405,-0.0373,-0.0371,-0.0381,-0.0379,-0.0378,-0.0378,0,0,0,0,0,0,0,-0.0597,-0.059,-0.0526,-0.0529,-0.0525,-0.0517,-0.051,-0.0488,-0.0452,-0.0478,-0.0476,-0.0469,-0.0419,-0.0408,-0.0404,-0.037,-0.0381,-0.0379,-0.0377,-0.0376,-0.0325,-0.0325,0,0,0,0,0,0,-0.0605,-0.0593,-0.0528,-0.0524,-0.0559,-0.0515,-0.0508,-0.0494,-0.0452,-0.0446,-0.0469,-0.0467,-0.0412,-0.0406,-0.0401,-0.0385,-0.0378,-0.0376,-0.0375,-0.0325,-0.0325,-0.0325,0,0,0,0,0,0,-0.0607,-0.0599,-0.0531,-0.0558,-0.0549,-0.0514,-0.0499,-0.0493,-0.0481,-0.0445,-0.0439,-0.0463,-0.0411,-0.0405,-0.0383,-0.0382,-0.0375,-0.0373,-0.0325,-0.0325,-0.0325,-0.0351,0,0,0,0,0,0,-0.0609,-0.06,-0.0595,-0.0558,-0.0547,-0.0513,-0.0499,-0.0492,-0.0477,-0.0474,-0.0439,-0.0432,-0.0411,-0.0387,-0.0381,-0.0379,-0.0371,-0.0325,-0.0325,-0.0325,-0.035,-0.0352,-0.0354,0,0,0,0,0,-0.0613,-0.0604,-0.0595,-0.0587,-0.054,-0.0513,-0.0507,-0.0482,-0.0477,-0.0472,-0.0449,-0.0434,-0.0383,-0.0385,-0.0377,-0.0375,-0.0325,-0.0325,-0.0325,-0.035,-0.0352,-0.0354,0,0,0,0,0,0,-0.0642,-0.0599,-0.0588,-0.0568,-0.0544,-0.0508,-0.05,-0.0485,-0.0463,-0.0462,-0.0432,-0.0424,-0.0405,-0.0388,-0.039,-0.0361,-0.0353,-0.0351,-0.0373,-0.0375,-0.0377,-0.0382,-0.0369,0,0,0,0,0,-0.0646,-0.0627,-0.0591,-0.0577,-0.0566,-0.0535,-0.0522,-0.0505,-0.048,-0.047,-0.0445,-0.0421,-0.04,-0.0387,-0.0365,-0.0348,-0.034,-0.0343,-0.0344,-0.0346,-0.0345,-0.0336,-0.0336,-0.0326,-0.0326,-0.0326,0,0,-0.0654,-0.0629,-0.0619,-0.0582,-0.0562,-0.0544,-0.0527,-0.0508,-0.0494,-0.0467,-0.0445,-0.0426,-0.0398,-0.0378,-0.0368,-0.0363,-0.0347,-0.0346,-0.0348,-0.0346,-0.0336,-0.0337,-0.0338,-0.0326,-0.0326,-0.0326,0,0,-0.066,-0.0638,-0.0624,-0.0605,-0.0575,-0.0554,-0.0551,-0.0517,-0.0503,-0.0481,-0.046,-0.0443,-0.0407,-0.0388,-0.0373,-0.0372,-0.0358,-0.0366,-0.0376,-0.0366,-0.0367,-0.0368,-0.0368,-0.0368,-0.0366,-0.0366,-0.0366,0,-0.0674,-0.0645,-0.0619,-0.0602,-0.0586,-0.0561,-0.0547,-0.0529,-0.0493,-0.0484,-0.0478,-0.0433,-0.0411,-0.0387,-0.0387,-0.0376,-0.0372,-0.037,-0.0369,-0.0369,-0.037,-0.037,-0.037,-0.0367,-0.0367,-0.0367,-0.0366,0,-0.0664,-0.0645,-0.0637,-0.0604,-0.0588,-0.0572,-0.0544,-0.0531,-0.0515,-0.0496,-0.0474,-0.0447,-0.042,-0.0413,-0.0398,-0.0387,-0.0385,-0.0375,-0.0365,-0.0372,-0.0372,-0.0372,-0.0369,-0.0368,-0.0368,-0.0368,0,0,-0.0686,-0.0639,-0.0637,-0.0621,-0.0587,-0.0571,-0.0555,-0.0528,-0.0518,-0.0494,-0.048,-0.045,-0.0441,-0.0424,-0.0407,-0.0398,-0.04,-0.0389,-0.0388,-0.0393,-0.0388,-0.0396,-0.0396,-0.039,-0.039,-0.039,-0.039,0,-0.0687,-0.0656,-0.0633,-0.0611,-0.0593,-0.0569,-0.0554,-0.0532,-0.0513,-0.0495,-0.0475,-0.0454,-0.0443,-0.0433,-0.0424,-0.0402,-0.0399,-0.0402,-0.0377,-0.0376,-0.0385,-0.0396,-0.0404,-0.0406,-0.039,-0.039,-0.039,0,-0.0684,-0.0662,-0.0638,-0.0606,-0.0597,-0.0585,-0.0559,-0.0543,-0.0517,-0.0504,-0.0486,-0.0468,-0.0449,-0.0442,-0.0416,-0.0419,-0.0407,-0.0395,-0.0395,-0.0392,-0.0384,-0.0394,-0.0406,-0.0406,-0.0389,-0.0389,-0.0389,0,-0.0703,-0.0667,-0.0649,-0.0636,-0.0598,-0.059,-0.0574,-0.0547,-0.0533,-0.0511,-0.0502,-0.0478,-0.0464,-0.0446,-0.0422,-0.0419,-0.04,-0.039,-0.0389,-0.039,-0.0386,-0.0387,-0.0397,-0.0378,-0.0378,-0.0378,-0.0378,0,-0.0707,-0.0694,-0.0657,-0.0645,-0.063,-0.0603,-0.0588,-0.057,-0.0547,-0.0532,-0.051,-0.0496,-0.0465,-0.0447,-0.0428,-0.0411,-0.0405,-0.0394,-0.039,-0.0397,-0.0398,-0.0389,-0.0388,-0.0378,-0.0378,-0.0378,-0.0378,0,-0.0726,-0.07,-0.0679,-0.0644,-0.0635,-0.0626,-0.0596,-0.0585,-0.0565,-0.0546,-0.054,-0.051,-0.0488,-0.0462,-0.0432,-0.042,-0.0404,-0.0397,-0.0413,-0.041,-0.0411,-0.0412,-0.0416,-0.0416,-0.0397,-0.0397,-0.0397,0,-0.073,-0.0719,-0.0684,-0.0672,-0.0657,-0.0638,-0.0624,-0.0597,-0.0583,-0.0553,-0.0545,-0.0522,-0.0502,-0.0469,-0.0444,-0.0421,-0.0413,-0.0417,-0.041,-0.0417,-0.0414,-0.0415,-0.0414,-0.0418,-0.0419,-0.0419,-0.0419,0,-0.074,-0.0728,-0.0709,-0.0685,-0.0669,-0.0648,-0.0627,-0.0619,-0.0588,-0.0574,-0.0552,-0.0536,-0.0506,-0.0484,-0.0458,-0.0441,-0.0425,-0.0422,-0.042,-0.0428,-0.0438,-0.0433,-0.0418,-0.0422,-0.0421,-0.0421,-0.0421,-0.0421,-0.0752,-0.0742,-0.0715,-0.0694,-0.0676,-0.0657,-0.0645,-0.0624,-0.0605,-0.0578,-0.0564,-0.0542,-0.0517,-0.0481,-0.0465,-0.0447,-0.0442,-0.044,-0.0439,-0.0439,-0.0442,-0.044,-0.0443,-0.0442,-0.0442,-0.0442,-0.0442,0,-0.0762,-0.0744,-0.0725,-0.0696,-0.068,-0.0667,-0.0643,-0.063,-0.0612,-0.0589,-0.057,-0.0545,-0.0524,-0.0497,-0.0474,-0.0466,-0.0458,-0.046,-0.0461,-0.0458,-0.0448,-0.0452,-0.0467,-0.0467,-0.0467,-0.0467,-0.0467,-0.0467,-0.0765,-0.0747,-0.0732,-0.0705,-0.0687,-0.0666,-0.0654,-0.0636,-0.0618,-0.0592,-0.0573,-0.0557,-0.0533,-0.0508,-0.0487,-0.048,-0.0473,-0.0478,-0.0469,-0.046,-0.0458,-0.0456,-0.0459,-0.0476,-0.0476,-0.048,-0.048,-0.048]},{"header":{"parameterUnit":"m.s-1","parameterCategory":1,"la1":30.2991,"la2":30.254,"lo1":-89.0895,"lo2":-89.0444,"dy":0.0017,"dx":0.0017,"nx":28,"ny":28,"refTime":"2025-12-24T03:00:00:Z","depth":0,"parameterNumber":3,"parameterNumberName":"V-component_of_WINDS"},"data":[0,0,0,0,0,0,0,0,0,0,0,0,0,0,0,0,0,0,0,0,0,0,0,0,0,0,0,0,0,0,0,0,0,0,0,0,0,0,0,0,0,0,0,0,0,0,0,0,0,0,0,0,0,0,0,0,0,0,0.791,0.791,0,0.7851,0.785,0.785,0.7842,0.7843,0.7843,0.7844,0.778,0.7778,0.7776,0,0,0,0,0,0,0,0,0,0,0,0,0,0.8015,0.8013,0.791,0.791,0.7909,0.7851,0.785,0.7849,0.7842,0.7843,0.7843,0.7844,0.7781,0.7778,0.7775,0,0,0,0,0,0,0,0,0,0,0,0,0,0.7964,0.8012,0.791,0.7898,0.7897,0.7851,0.785,0.7849,0.7842,0.7843,0.7844,0.7844,0.7782,0.7778,0.7775,0.7737,0,0,0.7765,0.7763,0,0,0,0,0,0,0,0,0.7966,0.796,0.7901,0.7899,0.7897,0.7855,0.7864,0.7811,0.7842,0.7863,0.7844,0.7845,0.7804,0.7799,0.7786,0.7734,0.7731,0.7765,0.7763,0.7761,0.776,0,0,0,0,0,0,0,0.797,0.7962,0.7887,0.79,0.7898,0.7895,0.7889,0.7854,0.7829,0.7861,0.786,0.7853,0.7803,0.7789,0.7784,0.773,0.7765,0.7762,0.776,0.7758,0.7642,0.7641,0,0,0,0,0,0,0.7976,0.7965,0.7889,0.7885,0.7935,0.7892,0.7885,0.7867,0.7829,0.7825,0.7853,0.7853,0.7794,0.7788,0.7782,0.7733,0.7761,0.7758,0.7756,0.7643,0.7642,0.7641,0,0,0,0,0,0,0.7978,0.7969,0.7891,0.7925,0.7915,0.789,0.787,0.7866,0.7852,0.7823,0.7819,0.7843,0.7795,0.7787,0.7748,0.7731,0.7756,0.7753,0.7644,0.7643,0.7641,0.7636,0,0,0,0,0,0,0.7981,0.797,0.7956,0.7925,0.7913,0.7859,0.7869,0.7864,0.7846,0.7846,0.7813,0.7808,0.7795,0.7753,0.7745,0.7727,0.7751,0.7646,0.7644,0.7642,0.7637,0.7634,0.7632,0,0,0,0,0,0.7985,0.7957,0.7955,0.7946,0.7895,0.7858,0.7851,0.7837,0.7845,0.783,0.7812,0.7809,0.7735,0.7749,0.774,0.772,0.7647,0.7644,0.7642,0.7639,0.7635,0.7632,0,0,0,0,0,0,0.7986,0.7952,0.7951,0.7911,0.7888,0.7857,0.7837,0.7834,0.7807,0.7808,0.7791,0.7784,0.7745,0.7729,0.7746,0.768,0.7691,0.7687,0.7692,0.7688,0.7685,0.7689,0.7748,0,0,0,0,0,0.7982,0.7955,0.7927,0.7895,0.7884,0.7863,0.7846,0.7837,0.7812,0.7801,0.778,0.7755,0.7725,0.7706,0.7678,0.7636,0.7627,0.7618,0.7615,0.7613,0.7608,0.7583,0.7578,0.7633,0.7633,0.7633,0,0,0.7972,0.7951,0.7935,0.7895,0.7875,0.7847,0.7854,0.7824,0.7803,0.7797,0.7758,0.7742,0.7712,0.7671,0.7652,0.7657,0.7592,0.761,0.7608,0.7605,0.758,0.7575,0.757,0.7631,0.7631,0.7632,0,0,0.794,0.7922,0.7893,0.7873,0.7844,0.783,0.7824,0.7793,0.7782,0.7744,0.7738,0.7712,0.7663,0.7641,0.7624,0.7584,0.758,0.7575,0.7559,0.7534,0.753,0.7526,0.751,0.7504,0.7571,0.7571,0.7571,0,0.7932,0.789,0.7878,0.7848,0.783,0.7824,0.7793,0.7775,0.7737,0.7724,0.7731,0.7667,0.7647,0.76,0.759,0.7577,0.7567,0.7578,0.7532,0.7528,0.7524,0.7508,0.7502,0.7571,0.7571,0.7571,0.7571,0,0.788,0.7851,0.7831,0.7796,0.7775,0.7745,0.7727,0.7708,0.7702,0.7687,0.7647,0.7623,0.7589,0.7577,0.7571,0.7529,0.7533,0.7536,0.7546,0.7518,0.7503,0.7497,0.757,0.757,0.757,0.757,0,0,0.7845,0.7804,0.7797,0.778,0.7748,0.7724,0.7694,0.7661,0.7644,0.7619,0.7591,0.755,0.7552,0.7532,0.7523,0.7502,0.7469,0.7507,0.7506,0.7499,0.742,0.7416,0.741,0.7468,0.7466,0.7466,0.7422,0,0.7808,0.7754,0.7742,0.7694,0.7667,0.7661,0.7634,0.761,0.7596,0.7569,0.7553,0.7523,0.753,0.7517,0.7497,0.7478,0.7453,0.7481,0.744,0.7438,0.7445,0.7402,0.7398,0.7358,0.7416,0.7415,0.7414,0,0.7757,0.7731,0.7681,0.7651,0.7639,0.7615,0.7584,0.7559,0.7532,0.7523,0.7501,0.7494,0.746,0.7474,0.7426,0.7445,0.7428,0.7416,0.7414,0.7408,0.7423,0.7392,0.7345,0.7338,0.7405,0.7406,0.7407,0,0.7734,0.7687,0.765,0.7637,0.7602,0.7585,0.7569,0.7543,0.7524,0.7496,0.7483,0.7452,0.7434,0.741,0.7394,0.7406,0.7347,0.736,0.7337,0.7337,0.7323,0.7323,0.7269,0.7315,0.7316,0.7316,0.7316,0,0.7692,0.7661,0.7639,0.7617,0.7581,0.7568,0.7533,0.7517,0.7494,0.7467,0.7461,0.7436,0.7418,0.7389,0.7377,0.7338,0.7331,0.7321,0.7318,0.732,0.7321,0.7307,0.7309,0.7314,0.7314,0.7315,0.7315,0,0.766,0.7644,0.7604,0.7574,0.7566,0.7541,0.7515,0.7492,0.7479,0.7444,0.7436,0.7413,0.7379,0.7362,0.732,0.7312,0.7267,0.7267,0.7276,0.7275,0.7252,0.7253,0.7185,0.7174,0.723,0.7229,0.7229,0,0.7633,0.7609,0.7578,0.756,0.7544,0.7515,0.7495,0.7481,0.7461,0.7428,0.7409,0.7375,0.7347,0.7294,0.7273,0.724,0.7237,0.7216,0.7232,0.7235,0.7234,0.7235,0.7231,0.7212,0.7211,0.7211,0.7211,0,0.7587,0.758,0.7553,0.7523,0.75,0.7475,0.745,0.7436,0.7417,0.7395,0.7361,0.7339,0.7297,0.7262,0.7229,0.7211,0.7207,0.7206,0.7199,0.72,0.7205,0.72,0.7266,0.7207,0.7207,0.7208,0.7208,0.7208,0.7555,0.7533,0.7507,0.7476,0.7456,0.7433,0.741,0.7393,0.7365,0.7329,0.7323,0.7286,0.7259,0.7213,0.7195,0.7165,0.7169,0.7159,0.7156,0.7153,0.7151,0.7212,0.7159,0.7159,0.7159,0.7159,0.7159,0,0.7506,0.7489,0.7461,0.7427,0.7403,0.7403,0.7376,0.7355,0.7323,0.7298,0.7271,0.7231,0.7198,0.7175,0.7141,0.7122,0.7119,0.7113,0.7113,0.7109,0.715,0.7159,0.7116,0.7116,0.7116,0.7116,0.7116,0.7116,0.7478,0.744,0.743,0.7382,0.7365,0.733,0.7314,0.7292,0.7272,0.7228,0.7201,0.7186,0.7162,0.7126,0.7095,0.7089,0.7075,0.7069,0.7063,0.7101,0.7106,0.711,0.7118,0.7067,0.7067,0.7023,0.7023,0.7023]}]]